[[{"header":{"parameterUnit":"m.s-1","parameterCategory":2,"la1":30.2992,"la2":30.254,"lo1":-89.0895,"lo2":-89.0443,"dy":0.0025,"dx":0.0025,"nx":19,"ny":19,"refTime":"2026-05-21T09:00:00:Z","depth":"0","parameterNumber":2,"parameterNumberName":"U-component_of_CURRENTS"},"data":[0,0,0,0.3997,0.3997,0.4,0.4,0.4199,0.4201,0,0,0,0,0,0,0,0,0,0,0,0.4001,0.4001,0.3997,0.3997,0.4,0.4,0.4198,0.4201,0,0,0,0,0,0,0,0,0,0,0,0.4001,0.4001,0.4001,0.3997,0.4,0.4,0.4198,0.4149,0,0,0,0,0,0,0,0,0,0,0.4122,0.4094,0.4001,0.4001,0.3997,0.4,0.4,0.4145,0.4152,0.425,0,0.4244,0,0.4228,0.4218,0.4219,0,0,0,0.4005,0.4087,0.4088,0.4001,0.3996,0.4,0.4001,0.4147,0.4156,0.4261,0.4247,0.4253,0.4231,0.4219,0.4221,0.453,0.4532,0,0,0.4005,0.401,0.4081,0.4093,0.3995,0.4,0.4001,0.415,0.4164,0.4247,0.4256,0.4234,0.4221,0.4223,0.4529,0.4531,0,0,0,0.3999,0.401,0.4003,0.4087,0.4072,0.4,0.4001,0.4157,0.4154,0.4258,0.4236,0.4223,0.4226,0.4527,0.453,0.4651,0,0,0,0.3999,0.4005,0.4003,0.4007,0.4067,0.4087,0.4004,0.4144,0.4159,0.4235,0.4223,0.4228,0.4526,0.4528,0.4644,0.4704,0,0,0,0.4001,0.4006,0.4004,0.4007,0.4003,0.4083,0.4088,0.4145,0.4148,0.4219,0.4229,0.4525,0.4528,0.4638,0.4693,0.4926,0,0,0,0.401,0.4012,0.4004,0.4007,0.4003,0.4074,0.4086,0.4135,0.4192,0.4224,0.4526,0.4529,0.4636,0.4687,0.4917,0.4917,0.4959,0,0,0.4017,0.4013,0.4015,0.4007,0.406,0.4074,0.4218,0.4275,0.4292,0.4488,0.4494,0.4646,0.4693,0.4924,0.5121,0.5157,0,0,0,0.402,0.4028,0.4041,0.4065,0.4112,0.4249,0.4298,0.4373,0.4526,0.4341,0.4685,0.4711,0.4853,0.4835,0.4864,0.461,0.4546,0.4545,0.4545,0.4056,0.4064,0.4109,0.4161,0.4238,0.4387,0.4527,0.466,0.4641,0.4734,0.4838,0.5131,0.511,0.5133,0.487,0.4866,0.4867,0.4867,0.4867,0.4087,0.4116,0.4185,0.4229,0.4388,0.4536,0.4803,0.4851,0.5139,0.5009,0.5144,0.4995,0.5172,0.488,0.4876,0.4874,0.4873,0.4873,0.4872,0.4101,0.4129,0.4149,0.4271,0.4463,0.4653,0.496,0.5125,0.526,0.5401,0.5453,0.5449,0.5177,0.5494,0.5495,0.5497,0.5498,0.5499,0.5499,0.4113,0.4145,0.4216,0.434,0.4463,0.4708,0.5073,0.5303,0.5576,0.5619,0.562,0.5249,0.5324,0.5281,0.552,0.5516,0.5513,0.5512,0.551,0.4143,0.416,0.4267,0.4367,0.4632,0.4803,0.5151,0.5548,0.5824,0.5952,0.558,0.5774,0.5762,0.5734,0.5703,0.6038,0.6038,0.6038,0.6038,0.4182,0.4192,0.4355,0.4512,0.4727,0.4878,0.5115,0.5422,0.5645,0.5639,0.5653,0.5416,0.5406,0.5356,0.5338,0.5291,0.5514,0.5513,0.5512,0.4243,0.4287,0.4414,0.4539,0.4756,0.4894,0.4927,0.4945,0.5244,0.5461,0.531,0.5332,0.4943,0.4948,0.4824,0.4819,0.4726,0,0]},{"header":{"parameterUnit":"m.s-1","parameterCategory":2,"la1":30.2992,"la2":30.254,"lo1":-89.0895,"lo2":-89.0443,"dy":0.0025,"dx":0.0025,"nx":19,"ny":19,"refTime":"2026-05-21T09:00:00:Z","depth":"0","parameterNumber":3,"parameterNumberName":"V-component_of_CURRENTS"},"data":[0,0,0,0.023,0.0229,0.0172,0.0172,0.0091,0.0091,0,0,0,0,0,0,0,0,0,0,0,0.0249,0.0249,0.023,0.0229,0.0172,0.0172,0.0091,0.0091,0,0,0,0,0,0,0,0,0,0,0,0.0249,0.0249,0.0249,0.0229,0.0172,0.0172,0.0092,0.0133,0,0,0,0,0,0,0,0,0,0,0.0188,0.021,0.0249,0.0249,0.0229,0.0172,0.0172,0.0135,0.013,0.0119,0,0.0119,0,0.0109,0.0086,0.0086,0,0,0,0.0215,0.0214,0.0203,0.0249,0.0228,0.0173,0.0194,0.0132,0.0127,0.0113,0.0118,0.0115,0.0108,0.0086,0.0086,0.0164,0.0165,0,0,0.0218,0.0231,0.0207,0.02,0.0225,0.0196,0.0192,0.0129,0.0126,0.0118,0.0113,0.0107,0.0086,0.0085,0.0163,0.0164,0,0,0,0.0237,0.0233,0.0223,0.0204,0.0197,0.0195,0.019,0.0129,0.0127,0.0112,0.0106,0.0085,0.0084,0.0161,0.0163,0.0362,0,0,0,0.0238,0.0245,0.0225,0.0231,0.0199,0.0163,0.0191,0.0131,0.0124,0.0106,0.0085,0.0084,0.016,0.0162,0.0353,0.0506,0,0,0,0.025,0.0246,0.0244,0.0232,0.0214,0.0164,0.0158,0.0129,0.012,0.0086,0.0084,0.0159,0.0162,0.0346,0.0491,0.071,0,0,0,0.0257,0.0295,0.0244,0.0284,0.0215,0.0247,0.0158,0.0153,0.0134,0.0085,0.016,0.0163,0.0343,0.0481,0.0699,0.0909,0.0979,0,0,0.0319,0.0302,0.033,0.0284,0.0342,0.0253,0.0336,0.0256,0.0181,0.0173,0.0175,0.0356,0.049,0.0708,0.1092,0.1157,0,0,0,0.036,0.039,0.0395,0.0411,0.0398,0.0451,0.036,0.0359,0.0366,0.0186,0.0365,0.0445,0.0576,0.0678,0.0729,0.0426,0.0178,0.0177,0.0177,0.047,0.0469,0.0542,0.0556,0.0582,0.0577,0.0637,0.0624,0.0488,0.0542,0.061,0.0924,0.1032,0.1074,0.0756,0.0578,0.0579,0.058,0.058,0.0614,0.0673,0.0687,0.0764,0.0796,0.0868,0.0928,0.0885,0.1022,0.0831,0.0946,0.0886,0.1143,0.0783,0.0593,0.0591,0.0589,0.0588,0.0587,0.0702,0.074,0.0777,0.0907,0.1044,0.1087,0.1335,0.1304,0.1266,0.1371,0.149,0.1488,0.1176,0.1421,0.1423,0.1425,0.1426,0.1427,0.1428,0.0782,0.0827,0.0944,0.108,0.1195,0.1398,0.1594,0.1742,0.1867,0.1798,0.1798,0.1272,0.1183,0.1154,0.1454,0.1449,0.1446,0.1444,0.1442,0.0914,0.092,0.1097,0.1213,0.1511,0.1838,0.2001,0.2389,0.2493,0.2617,0.1926,0.2029,0.2014,0.197,0.1961,0.2453,0.2453,0.2453,0.2453,0.0992,0.1015,0.1242,0.1453,0.1755,0.204,0.2646,0.2939,0.2702,0.2456,0.2163,0.1917,0.189,0.1844,0.1804,0.178,0.2215,0.2214,0.2213,0.1095,0.1139,0.1319,0.1514,0.1855,0.2306,0.2946,0.3361,0.2787,0.2155,0.1704,0.1715,0.1283,0.1265,0.1121,0.1088,0.1023,0,0]}],[{"header":{"parameterUnit":"m.s-1","parameterCategory":2,"la1":30.2992,"la2":30.254,"lo1":-89.0895,"lo2":-89.0443,"dy":0.0025,"dx":0.0025,"nx":19,"ny":19,"refTime":"2026-05-21T09:00:00:Z","depth":"2","parameterNumber":2,"parameterNumberName":"U-component_of_CURRENTS"},"data":[0,0,0,0.3241,0.3244,0.3387,0.3387,0.3515,0.3516,0,0,0,0,0,0,0,0,0,0,0,0.3184,0.3186,0.324,0.3244,0.3387,0.3387,0.3515,0.3516,0,0,0,0,0,0,0,0,0,0,0,0.3184,0.3185,0.3187,0.3245,0.3386,0.3387,0.3514,0.3418,0,0,0,0,0,0,0,0,0,0,0.3285,0.3243,0.3185,0.3187,0.3246,0.3386,0.3387,0.3414,0.3424,0.3438,0,0.3469,0,0.3504,0.3524,0.3525,0,0,0,0.3233,0.3235,0.3279,0.3187,0.3247,0.3386,0.3319,0.342,0.3431,0.3452,0.3471,0.3477,0.3506,0.3525,0.3526,0.3723,0.3724,0,0,0.3225,0.3203,0.3271,0.3287,0.3296,0.3315,0.3324,0.3427,0.3439,0.3472,0.348,0.3508,0.3526,0.3527,0.3722,0.3724,0,0,0,0.321,0.3198,0.324,0.328,0.3316,0.3319,0.333,0.3434,0.3451,0.3482,0.3509,0.3527,0.3528,0.3721,0.3723,0.3801,0,0,0,0.3205,0.319,0.3237,0.3224,0.3314,0.3385,0.3334,0.3443,0.3456,0.3509,0.3527,0.3529,0.3719,0.3722,0.3796,0.386,0,0,0,0.3176,0.3187,0.3208,0.3222,0.3291,0.3384,0.3406,0.3447,0.3474,0.3525,0.353,0.3718,0.3721,0.3792,0.3851,0.399,0,0,0,0.3141,0.3177,0.3207,0.3258,0.329,0.339,0.3406,0.3474,0.3518,0.3527,0.372,0.3722,0.379,0.3846,0.3984,0.3864,0.3884,0,0,0.3162,0.3179,0.3208,0.324,0.3329,0.3369,0.3498,0.3554,0.3573,0.3676,0.3682,0.3798,0.3851,0.3989,0.4033,0.4048,0,0,0,0.3199,0.3217,0.325,0.3313,0.3391,0.3491,0.3562,0.3629,0.3746,0.3618,0.3836,0.3868,0.3952,0.3867,0.388,0.3736,0.3736,0.3736,0.3735,0.3175,0.3228,0.329,0.337,0.3442,0.3591,0.37,0.3812,0.3811,0.3892,0.3959,0.4157,0.4065,0.4074,0.3974,0.3974,0.3974,0.3975,0.3975,0.3193,0.3232,0.3316,0.3393,0.3518,0.3645,0.3838,0.3903,0.4164,0.409,0.4167,0.3986,0.4092,0.3982,0.398,0.3979,0.3979,0.3978,0.3978,0.3166,0.3199,0.325,0.3372,0.3533,0.3686,0.3911,0.4094,0.4218,0.4352,0.4299,0.4295,0.4222,0.4406,0.4407,0.4407,0.4408,0.4409,0.4409,0.3118,0.3175,0.3219,0.3357,0.3463,0.3637,0.4007,0.4194,0.4385,0.4419,0.4418,0.4304,0.429,0.4251,0.4424,0.4421,0.4419,0.4418,0.4417,0.3084,0.3091,0.3153,0.3224,0.3438,0.3514,0.3879,0.42,0.447,0.4504,0.4462,0.4456,0.4437,0.4423,0.4389,0.4588,0.4588,0.4588,0.4588,0.3038,0.305,0.3071,0.3136,0.3271,0.3432,0.3566,0.3788,0.4121,0.4181,0.4197,0.4005,0.4009,0.3954,0.395,0.3901,0.3974,0.3973,0.3971,0.3003,0.3011,0.2976,0.3025,0.3161,0.3273,0.3247,0.3229,0.3538,0.3937,0.3987,0.4567,0.4322,0.4313,0.4253,0.4238,0.4169,0,0]},{"header":{"parameterUnit":"m.s-1","parameterCategory":2,"la1":30.2992,"la2":30.254,"lo1":-89.0895,"lo2":-89.0443,"dy":0.0025,"dx":0.0025,"nx":19,"ny":19,"refTime":"2026-05-21T09:00:00:Z","depth":"2","parameterNumber":3,"parameterNumberName":"V-component_of_CURRENTS"},"data":[0,0,0,0.0145,0.0144,0.0095,0.0095,0.0029,0.0029,0,0,0,0,0,0,0,0,0,0,0,0.0161,0.0161,0.0145,0.0144,0.0095,0.0095,0.0029,0.0029,0,0,0,0,0,0,0,0,0,0,0,0.0161,0.0161,0.016,0.0144,0.0095,0.0095,0.0029,0.0064,0,0,0,0,0,0,0,0,0,0,0.0111,0.0129,0.0161,0.016,0.0144,0.0096,0.0095,0.0065,0.0062,0.0054,0,0.0054,0,0.0046,0.0025,0.0025,0,0,0,0.0132,0.0132,0.0123,0.016,0.0144,0.0096,0.0114,0.0063,0.0059,0.0049,0.0053,0.005,0.0045,0.0025,0.0025,0.0071,0.0072,0,0,0.0134,0.0145,0.0126,0.0121,0.014,0.0116,0.0113,0.0061,0.0058,0.0053,0.0049,0.0043,0.0025,0.0024,0.007,0.0071,0,0,0,0.0151,0.0147,0.0139,0.0123,0.0118,0.0114,0.0111,0.006,0.0059,0.0048,0.0043,0.0024,0.0024,0.0069,0.0071,0.02,0,0,0,0.0152,0.0157,0.014,0.0145,0.0119,0.0089,0.0112,0.0062,0.0056,0.0043,0.0024,0.0023,0.0068,0.007,0.0194,0.0307,0,0,0,0.0161,0.0158,0.0156,0.0146,0.0131,0.009,0.0084,0.006,0.0053,0.0025,0.0023,0.0068,0.007,0.0189,0.0296,0.0391,0,0,0,0.0168,0.0196,0.0157,0.0192,0.0131,0.0159,0.0084,0.0081,0.0065,0.0024,0.0068,0.007,0.0188,0.029,0.0384,0.0485,0.0525,0,0,0.0214,0.0201,0.0227,0.0192,0.0246,0.0164,0.0223,0.0156,0.0095,0.008,0.0081,0.0196,0.0295,0.0389,0.0606,0.0643,0,0,0,0.025,0.0272,0.028,0.0299,0.0294,0.0312,0.0242,0.0226,0.0209,0.0097,0.0203,0.0263,0.0317,0.0363,0.0392,0.008,0.008,0.008,0.008,0.0321,0.0334,0.0397,0.0415,0.0432,0.0412,0.043,0.0397,0.0303,0.0323,0.037,0.0542,0.0592,0.0615,0.0342,0.0343,0.0343,0.0344,0.0344,0.0425,0.0476,0.0502,0.0566,0.0582,0.0625,0.0626,0.0577,0.0627,0.0512,0.0556,0.0502,0.0655,0.0354,0.0352,0.0351,0.035,0.0349,0.0348,0.0482,0.0516,0.0553,0.0666,0.0766,0.078,0.0947,0.0884,0.0788,0.0837,0.0859,0.0857,0.0645,0.084,0.0841,0.0842,0.0843,0.0844,0.0844,0.0524,0.0573,0.0675,0.0786,0.0896,0.1044,0.1153,0.1219,0.1181,0.1062,0.1061,0.0711,0.0694,0.0674,0.0859,0.0856,0.0854,0.0853,0.0852,0.0608,0.0625,0.0793,0.0908,0.119,0.1483,0.1529,0.1667,0.1641,0.1628,0.1176,0.1163,0.1143,0.1118,0.1108,0.1394,0.1394,0.1394,0.1394,0.0662,0.0681,0.0934,0.1166,0.1464,0.1701,0.2066,0.2008,0.1759,0.1512,0.1506,0.1391,0.1368,0.1349,0.1319,0.1308,0.1647,0.1647,0.1647,0.0736,0.0806,0.1012,0.1247,0.1614,0.1991,0.2338,0.2234,0.1778,0.1649,0.1468,0.1427,0.1235,0.1207,0.115,0.1113,0.1083,0,0]}],[{"header":{"parameterUnit":"m.s-1","parameterCategory":2,"la1":30.2992,"la2":30.254,"lo1":-89.0895,"lo2":-89.0443,"dy":0.0025,"dx":0.0025,"nx":19,"ny":19,"refTime":"2026-05-21T09:00:00:Z","depth":"4","parameterNumber":2,"parameterNumberName":"U-component_of_CURRENTS"},"data":[0,0,0,0.213,0.2136,0.2385,0.2386,0.2533,0.2534,0,0,0,0,0,0,0,0,0,0,0,0.2047,0.2049,0.213,0.2136,0.2385,0.2386,0.2533,0.2534,0,0,0,0,0,0,0,0,0,0,0,0.2046,0.2049,0.2051,0.2137,0.2385,0.2386,0.2533,0.2386,0,0,0,0,0,0,0,0,0,0,0.2164,0.2119,0.2048,0.2051,0.2139,0.2385,0.2386,0.238,0.2395,0.2374,0,0.2434,0,0.2487,0.2541,0.2541,0,0,0,0.2128,0.2108,0.2172,0.2052,0.2141,0.2385,0.2271,0.239,0.2406,0.2392,0.2436,0.2443,0.249,0.2542,0.2542,0.266,0.2661,0,0,0.2115,0.2088,0.2162,0.2183,0.2231,0.2263,0.2279,0.2401,0.2425,0.2437,0.2448,0.2492,0.2542,0.2543,0.266,0.266,0,0,0,0.208,0.2078,0.2144,0.2175,0.2235,0.227,0.2288,0.242,0.2443,0.245,0.2494,0.2543,0.2544,0.2659,0.266,0.2766,0,0,0,0.2072,0.2059,0.2138,0.2123,0.2235,0.2356,0.2304,0.2434,0.2451,0.2493,0.2543,0.2545,0.2659,0.266,0.2762,0.2745,0,0,0,0.2031,0.2055,0.2091,0.2122,0.2233,0.2356,0.2387,0.244,0.2476,0.2541,0.2545,0.2658,0.2659,0.2758,0.2741,0.2855,0,0,0,0.1983,0.2034,0.2091,0.2168,0.2231,0.2349,0.2387,0.2489,0.2548,0.2543,0.2659,0.266,0.2757,0.2738,0.2851,0.2488,0,0,0,0.2006,0.2037,0.2079,0.2135,0.2233,0.2312,0.2432,0.2533,0.2555,0.2603,0.2608,0.2763,0.274,0.2854,0.2568,0,0,0,0,0.2057,0.2087,0.2129,0.2212,0.2304,0.2418,0.2517,0.2581,0.2701,0.2602,0.276,0.274,0.2811,0.2586,0.2666,0.2666,0.2666,0.2666,0.2666,0.2016,0.208,0.2146,0.2243,0.2331,0.2494,0.2599,0.2698,0.2726,0.2807,0.2828,0.2974,0.274,0.286,0.2861,0.2861,0.2862,0.2862,0.2862,0.2017,0.2035,0.215,0.2243,0.2373,0.2493,0.2693,0.278,0.2945,0.2916,0.2984,0.271,0.2873,0.2871,0.2869,0.2868,0.2867,0.2866,0.2866,0.1949,0.1959,0.2062,0.219,0.2346,0.2527,0.2681,0.2857,0.3004,0.308,0.2894,0.3045,0.3038,0.3166,0.3167,0.3167,0.3168,0.3168,0.3168,0.1813,0.1908,0.196,0.2136,0.2215,0.2411,0.2694,0.2806,0.3006,0.2926,0.3128,0.3076,0.3066,0.3055,0.3176,0.3174,0.3173,0.3173,0.3172,0.1677,0.1743,0.1791,0.1863,0.2041,0.2168,0.2497,0.2686,0.28,0.2836,0.2864,0.2877,0.2804,0.2801,0.2777,0.282,0.2816,0.2812,0,0.1546,0.1595,0.1596,0.1627,0.1709,0.1977,0.2076,0.2301,0.2524,0.2433,0.2783,0.2803,0.2814,0.2716,0.2708,0.2669,0,0,0,0.1432,0.1456,0.1385,0.1449,0.1507,0.1775,0.209,0.2092,0.2508,0.2535,0.2706,0.2734,0.2964,0.3197,0.3116,0.3104,0.3081,0,0]},{"header":{"parameterUnit":"m.s-1","parameterCategory":2,"la1":30.2992,"la2":30.254,"lo1":-89.0895,"lo2":-89.0443,"dy":0.0025,"dx":0.0025,"nx":19,"ny":19,"refTime":"2026-05-21T09:00:00:Z","depth":"4","parameterNumber":3,"parameterNumberName":"V-component_of_CURRENTS"},"data":[0,0,0,0.0149,0.0148,0.0113,0.0112,0.008,0.008,0,0,0,0,0,0,0,0,0,0,0,0.0161,0.0161,0.0149,0.0148,0.0113,0.0112,0.008,0.008,0,0,0,0,0,0,0,0,0,0,0,0.0161,0.0161,0.0161,0.0148,0.0113,0.0112,0.008,0.0102,0,0,0,0,0,0,0,0,0,0,0.0134,0.0146,0.0161,0.0161,0.0148,0.0113,0.0112,0.0102,0.01,0.0103,0,0.0104,0,0.0096,0.0079,0.0079,0,0,0,0.0139,0.0148,0.0141,0.0161,0.0148,0.0113,0.0126,0.0101,0.0099,0.01,0.0103,0.0102,0.0095,0.0079,0.0079,0.012,0.0121,0,0,0.0141,0.015,0.0142,0.014,0.0147,0.0127,0.0125,0.0099,0.0099,0.0103,0.0101,0.0095,0.0079,0.0079,0.012,0.012,0,0,0,0.0153,0.0152,0.0145,0.0141,0.0136,0.0126,0.0124,0.01,0.0099,0.01,0.0094,0.0079,0.0079,0.0119,0.012,0.0201,0,0,0,0.0154,0.0159,0.0146,0.0151,0.0137,0.0116,0.0126,0.0101,0.0097,0.0094,0.0079,0.0078,0.0118,0.0119,0.0197,0.0255,0,0,0,0.0161,0.016,0.0159,0.0151,0.014,0.0116,0.0112,0.0099,0.0094,0.0079,0.0078,0.0118,0.0119,0.0194,0.0249,0.0292,0,0,0,0.0167,0.0186,0.0159,0.0185,0.0141,0.0165,0.0112,0.0117,0.011,0.0079,0.0118,0.012,0.0193,0.0245,0.0288,0.0329,0,0,0,0.0198,0.019,0.0209,0.0185,0.0228,0.0168,0.021,0.017,0.0131,0.0125,0.0125,0.0198,0.0248,0.0291,0.0407,0,0,0,0,0.0224,0.024,0.0248,0.0265,0.0266,0.0278,0.0233,0.0214,0.02,0.0134,0.0203,0.0233,0.0257,0.0269,0.0126,0.0126,0.0126,0.0126,0.0126,0.0268,0.0282,0.0331,0.0349,0.0369,0.0352,0.0354,0.0322,0.0267,0.0274,0.0301,0.0396,0.0413,0.029,0.0291,0.0291,0.0291,0.0292,0.0292,0.0336,0.0371,0.0404,0.0457,0.0474,0.0507,0.0491,0.0449,0.0445,0.0381,0.04,0.0357,0.03,0.0298,0.0297,0.0296,0.0295,0.0295,0.0295,0.0367,0.0391,0.0429,0.0526,0.0608,0.0625,0.0707,0.0642,0.0552,0.0561,0.0559,0.0459,0.0449,0.0563,0.0563,0.0564,0.0564,0.0564,0.0565,0.0381,0.0426,0.0515,0.0613,0.071,0.0819,0.0836,0.0826,0.0726,0.0679,0.0592,0.0487,0.0479,0.0465,0.0572,0.0571,0.057,0.0569,0.0568,0.0428,0.0453,0.0595,0.0699,0.0922,0.1008,0.1029,0.0968,0.0948,0.0884,0.0728,0.0718,0.0695,0.0682,0.0673,0.0846,0.0847,0.0848,0,0.0462,0.0481,0.0693,0.0886,0.1073,0.1142,0.1173,0.1129,0.097,0.0962,0.0928,0.0755,0.0745,0.072,0.0709,0.0702,0,0,0,0.0516,0.058,0.0742,0.093,0.1155,0.1197,0.1188,0.1148,0.1004,0.0969,0.0873,0.0866,0.0726,0.0593,0.0534,0.0524,0.0498,0,0]}]]